This is the latest recevied weather packets stored in our database for station/object KW4UJ. If no packets are shown the sender has not sent any weather packets the latest 10 day(s).
| Time | Temp. | Humidity | Pressure | Rain* | Wind** | Luminosity | Snow |
|---|---|---|---|---|---|---|---|
| 1777558563 | 17.22° C | 53% | 1009.7 hPa | 0 mm | - | 505 W/m² | - |
| 1777558259 | 17.22° C | 54% | 1009.4 hPa | 0 mm | - | 243 W/m² | - |
| 1777557955 | 17.22° C | 57% | 1009.5 hPa | 0 mm | - | 88 W/m² | - |
| 1777557653 | 17.22° C | 57% | 1009.5 hPa | 0 mm | - | 342 W/m² | - |
| 1777557349 | 16.67° C | 59% | 1009.5 hPa | 0 mm | - | 292 W/m² | - |
| 1777557045 | 16.67° C | 60% | 1009.9 hPa | 0 mm | - | 250 W/m² | - |
| 1777556741 | 16.67° C | 60% | 1009.8 hPa | 0 mm | - | 237 W/m² | - |
| 1777556438 | 16.67° C | 60% | 1009.8 hPa | 0 mm | - | 198 W/m² | - |
| 1777556138 | 15.56° C | 62% | 1009.4 hPa | 0 mm | - | 171 W/m² | - |
| 1777555833 | 16.11° C | 63% | 1009.1 hPa | 0 mm | - | 161 W/m² | - |
| 1777555529 | 16.11° C | 65% | 1009.5 hPa | 0 mm | - | 155 W/m² | - |
| 1777555226 | 16.11° C | 67% | 1009.4 hPa | 0 mm | - | 139 W/m² | - |
| 1777554923 | 16.11° C | 67% | 1009.3 hPa | 0 mm | - | 127 W/m² | - |
| 1777554620 | 15.56° C | 68% | 1009.4 hPa | 0 mm | - | 119 W/m² | - |
| 1777554316 | 15.56° C | 70% | 1009.1 hPa | 0 mm | - | 111 W/m² | - |
| 1777554014 | 15.56° C | 72% | 1009.2 hPa | 0 mm | - | 103 W/m² | - |
| 1777553710 | 15° C | 74% | 1009.3 hPa | 0 mm | - | 97 W/m² | - |
| 1777553407 | 15° C | 77% | 1009.3 hPa | 0 mm | - | 77 W/m² | - |
| 1777553103 | 14.44° C | 77% | 1009 hPa | 0 mm | - | 90 W/m² | - |
| 1777552803 | 13.89° C | 80% | 1009.1 hPa | 0 mm | - | 96 W/m² | - |
| 1777552499 | 13.33° C | 82% | 1009 hPa | 0 mm | - | 65 W/m² | - |
| 1777552195 | 13.33° C | 84% | 1009.1 hPa | 0 mm | - | 50 W/m² | - |
| 1777551892 | 12.78° C | 85% | 1009 hPa | 0 mm | - | 57 W/m² | - |
| 1777551590 | 12.78° C | 86% | 1009 hPa | 0 mm | - | 57 W/m² | - |
| 1777551287 | 12.78° C | 87% | 1008.7 hPa | 0 mm | - | 72 W/m² | - |
* Rain latest hour (hover to see other rain measurements)
** Current wind speed in m/s (hover to see current wind gust speed)